Tracking 28081 objects as of 26-Sep-2023
HD Live streaming from Space Station
objects crossing your sky now

GB 1

Track GB 1 now!
10-day predictions
GB 1 is classified as:


NORAD ID: 14143
Int'l Code: 1983-056C
Perigee: 403.2 km
Apogee: 1,648.7 km
Inclination: 63.3 °
Period: 105.5 minutes
Semi major axis: 7396 km
RCS: Unknown
Launch date: June 9, 1983
Source: United States (US)
Launch site: AIR FORCE WESTERN TEST RANGE (AFWTR)
Your satellite tracking list
Your tracking list is empty




NASA's NSSDC Master Catalog

Two Line Element Set (TLE):
1 14143U 83056C   23268.87140376  .00014200  00000-0  12490-2 0  9997
2 14143  63.3009  96.3513 0841950 114.2130 254.9205 13.64660007209980
Source of the keplerian elements: McCants